Weather History for Hutchinson, MN

Change the Weather History Date:

Saturday, November 24, 2012

  Actual Average Record
Temperature  
Mean Temperature 20 °F -  
Max Temperature 31 °F 32 °F 60 °F (2011)
Min Temperature 9 °F 15 °F -12 °F (1985)
Degree Days  
Heating Degree Days 45    
Moisture  
Dew Point 15 °F    
Average Humidity 81    
Maximum Humidity 95    
Minimum Humidity 66    
Precipitation  
Precipitation 0.00 in - - ()
Sea Level Pressure  
Sea Level Pressure 30.05 in    
Wind  
Wind Speed 4 mph (SSE)    
Max Wind Speed 15 mph    
Max Gust Speed 17 mph    
Visibility 10 miles    
Events      
Averages and records for this station are not official NWS values.
T = Trace of Precipitation, MM = Missing Value Source: NWS Daily Summary

Daily Weather History Graph

Daily Weather History Graph

Search for Another Location

Airport:

Trip Planner

Search our weather history database for the weather conditions in past years. The results will help you decide how hot, cold, wet, or windy it might be!

Date:

Astronomy

Nov. 24, 2012 Rise Set
Actual Time 7:27 AM CST 4:41 PM CST
Civil Twilight 6:54 AM CST 5:13 PM CST
Nautical Twilight 6:18 AM CST 5:49 PM CST
Astronomical Twilight 5:43 AM CST 6:24 PM CST
Moon 2:32 PM CST (11/24) 3:37 AM CST (11/24)
Length of Visible Light 10h 18m
Length of Day
9h 13m
Waxing Gibbous, 87% of the Moon is Illuminated
Nov 24
Waxing Gibbous
Nov 28
Full
Dec 6
Last Quarter
Dec 13
New
Dec 19
First Quarter

Hourly Weather History & Observations

Time (CST) Temp. Windchill Dew Point Humidity Pressure Visibility Wind Dir Wind Speed Gust Speed Precip Events Conditions
12:09 AM 13.8 °F 6.2 °F 11.8 °F 92% 30.35 in 10.0 mi WNW 4.6 mph - N/A   Clear
12:29 AM 14.0 °F 8.2 °F 12.0 °F 92% 30.34 in 10.0 mi NW 3.5 mph - N/A   Clear
12:49 AM 11.7 °F - 9.5 °F 91% 30.33 in 10.0 mi Calm Calm - N/A   Clear
1:09 AM 11.7 °F - 9.7 °F 92% 30.33 in 10.0 mi Calm Calm - N/A   Clear
1:29 AM 11.7 °F - 10.0 °F 93% 30.32 in 10.0 mi Calm Calm - N/A   Clear
2:09 AM 11.7 °F - 9.5 °F 91% 30.32 in 10.0 mi Calm Calm - N/A   Clear
2:28 AM 10.2 °F - 8.4 °F 92% 30.31 in 10.0 mi Calm Calm - N/A   Clear
2:49 AM 9.1 °F - 7.5 °F 93% 30.31 in 10.0 mi Calm Calm - N/A   Clear
3:09 AM 9.5 °F - 7.7 °F 92% 30.30 in 10.0 mi Calm Calm - N/A   Clear
3:48 AM 9.1 °F 2.6 °F 7.3 °F 92% 30.30 in 10.0 mi WSW 3.5 mph - N/A   Clear
4:09 AM 9.1 °F - 7.5 °F 93% 30.28 in 10.0 mi Calm Calm - N/A   Clear
4:28 AM 9.1 °F - 7.5 °F 93% 30.28 in 10.0 mi Calm Calm - N/A   Clear
4:49 AM 9.1 °F - 7.5 °F 93% 30.28 in 10.0 mi Calm Calm - N/A   Clear
5:09 AM 9.1 °F - 7.5 °F 93% 30.27 in 10.0 mi Calm Calm - N/A   Clear
5:28 AM 9.1 °F - 7.5 °F 93% 30.28 in 10.0 mi Calm Calm - N/A   Clear
5:49 AM 9.1 °F - 7.5 °F 93% 30.27 in 10.0 mi Calm Calm - N/A   Clear
6:09 AM 9.1 °F - 7.5 °F 93% 30.26 in 10.0 mi Calm Calm - N/A   Clear
6:28 AM 9.1 °F - 7.5 °F 93% 30.25 in 10.0 mi Calm Calm - N/A   Clear
6:49 AM 9.1 °F 2.6 °F 7.5 °F 93% 30.24 in 10.0 mi ESE 3.5 mph - N/A   Clear
7:08 AM 9.1 °F - 7.5 °F 93% 30.24 in 10.0 mi Calm Calm - N/A   Clear
7:28 AM 9.1 °F - 7.5 °F 93% 30.22 in 10.0 mi Calm Calm - N/A   Clear
7:49 AM 9.1 °F - 7.5 °F 93% 30.22 in 10.0 mi Calm Calm - N/A   Clear
8:09 AM 10.4 °F 4.0 °F 8.8 °F 93% 30.21 in 10.0 mi East 3.5 mph - N/A   Clear
8:25 AM 11.7 °F - 10.2 °F 94% 30.21 in 10.0 mi Calm Calm - N/A   Clear
8:39 AM 14.0 °F 5.1 °F 12.7 °F 95% 30.20 in 10.0 mi SE 5.8 mph - N/A   Scattered Clouds
9:10 AM 15.8 °F 7.2 °F 14.0 °F 93% 30.19 in 10.0 mi SSE 5.8 mph - N/A   Overcast
9:30 AM 15.8 °F 5.1 °F 14.0 °F 93% 30.19 in 10.0 mi SSE 8.1 mph - N/A   Overcast
9:50 AM 15.8 °F 6.1 °F 14.0 °F 93% 30.19 in 10.0 mi SSE 6.9 mph - N/A   Overcast
10:10 AM 17.6 °F 6.4 °F 15.8 °F 93% 30.17 in 10.0 mi SE 9.2 mph - N/A   Overcast
10:30 AM 19.4 °F 8.6 °F 15.8 °F 86% 30.14 in 10.0 mi SSE 9.2 mph - N/A   Overcast
10:50 AM 19.4 °F 6.6 °F 15.8 °F 86% 30.13 in 10.0 mi SE 12.7 mph - N/A   Overcast
10:52 AM 19.2 °F 7.7 °F 16.3 °F 89% 30.13 in 10.0 mi SE 10.4 mph - N/A   Overcast
11:08 AM 20.3 °F 9.8 °F 16.7 °F 86% 30.13 in 10.0 mi SSE 9.2 mph - N/A   Overcast
11:28 AM 21.7 °F 12.3 °F 17.6 °F 84% 30.10 in 10.0 mi SSE 8.1 mph - N/A   Mostly Cloudy
11:48 AM 22.1 °F 12.0 °F 17.4 °F 82% 30.08 in 10.0 mi SE 9.2 mph - N/A   Mostly Cloudy
12:09 PM 24.1 °F 13.1 °F 19.0 °F 81% 30.05 in 10.0 mi SE 11.5 mph - N/A   Overcast
12:29 PM 24.3 °F 13.3 °F 18.3 °F 78% 30.03 in 10.0 mi SSE 11.5 mph 17.3 mph N/A   Overcast
12:49 PM 24.4 °F 14.2 °F 18.3 °F 78% 30.02 in 10.0 mi SE 10.4 mph - N/A   Overcast
1:09 PM 25.9 °F 14.3 °F 18.9 °F 75% 30.00 in 10.0 mi SE 13.8 mph - N/A   Overcast
1:29 PM 26.6 °F 15.7 °F 19.2 °F 74% 29.98 in 10.0 mi SE 12.7 mph 16.1 mph N/A   Mostly Cloudy
1:49 PM 26.6 °F 16.2 °F 18.7 °F 72% 29.96 in 10.0 mi SE 11.5 mph - N/A   Overcast
1:56 PM 26.6 °F 16.2 °F 18.5 °F 71% 29.96 in 10.0 mi SE 11.5 mph - N/A   Overcast
2:30 PM 28.4 °F 17.5 °F 21.2 °F 74% 29.92 in 10.0 mi SE 13.8 mph - N/A   Overcast
2:50 PM 28.4 °F 17.0 °F 21.2 °F 74% 29.90 in 10.0 mi SE 15.0 mph - N/A   Overcast
3:10 PM 28.4 °F 18.5 °F 19.4 °F 69% 29.89 in 10.0 mi SE 11.5 mph - N/A   Mostly Cloudy
3:30 PM 28.4 °F 18.5 °F 19.4 °F 69% 29.89 in 10.0 mi SE 11.5 mph - N/A   Overcast
3:50 PM 28.4 °F 19.7 °F 19.4 °F 69% 29.88 in 10.0 mi SE 9.2 mph - N/A   Mostly Cloudy
4:10 PM 28.4 °F 21.2 °F 19.4 °F 69% 29.88 in 10.0 mi SE 6.9 mph - N/A   Overcast
4:30 PM 28.4 °F 23.3 °F 19.4 °F 69% 29.88 in 10.0 mi SSE 4.6 mph - N/A   Overcast
4:50 PM 28.4 °F 21.2 °F 19.4 °F 69% 29.88 in 10.0 mi SSE 6.9 mph - N/A   Overcast
5:10 PM 28.4 °F 22.2 °F 19.4 °F 69% 29.87 in 10.0 mi SSE 5.8 mph - N/A   Overcast
5:30 PM 28.4 °F 20.4 °F 19.4 °F 69% 29.85 in 10.0 mi SE 8.1 mph - N/A   Overcast
5:50 PM 28.4 °F 20.4 °F 19.4 °F 69% 29.85 in 10.0 mi SE 8.1 mph - N/A   Overcast
5:51 PM 29.3 °F 21.5 °F 19.6 °F 67% 29.85 in 10.0 mi SE 8.1 mph - N/A   Overcast
6:09 PM 29.3 °F 20.8 °F 19.4 °F 67% 29.83 in 10.0 mi SE 9.2 mph - N/A   Overcast
6:29 PM 29.3 °F 24.3 °F 19.0 °F 66% 29.85 in 10.0 mi SSE 4.6 mph - N/A   Overcast
6:49 PM 29.3 °F 25.6 °F 19.2 °F 66% 29.84 in 10.0 mi SSE 3.5 mph - N/A   Overcast
7:08 PM 29.3 °F 24.3 °F 19.4 °F 67% 29.83 in 10.0 mi SE 4.6 mph - N/A   Mostly Cloudy
7:28 PM 29.3 °F 22.3 °F 19.6 °F 67% 29.81 in 10.0 mi SE 6.9 mph - N/A   Scattered Clouds
8:08 PM 29.3 °F 25.6 °F 20.3 °F 69% 29.82 in 10.0 mi SSE 3.5 mph - N/A   Mostly Cloudy
8:28 PM 30.4 °F 26.9 °F 21.2 °F 69% 29.81 in 10.0 mi South 3.5 mph - N/A   Overcast
8:49 PM 31.8 °F 28.5 °F 22.1 °F 67% 29.81 in 10.0 mi South 3.5 mph - N/A   Overcast
9:09 PM 30.6 °F 23.8 °F 21.2 °F 68% 29.78 in 10.0 mi South 6.9 mph - N/A   Scattered Clouds
9:29 PM 30.6 °F 25.8 °F 21.2 °F 68% 29.80 in 10.0 mi SSW 4.6 mph - N/A   Clear
9:49 PM 30.4 °F 24.5 °F 21.4 °F 69% 29.78 in 10.0 mi South 5.8 mph - N/A   Scattered Clouds
10:09 PM 29.3 °F 25.6 °F 21.6 °F 73% 29.78 in 10.0 mi SW 3.5 mph - N/A   Scattered Clouds
10:28 PM 29.3 °F 24.3 °F 21.7 °F 73% 29.78 in 10.0 mi WNW 4.6 mph - N/A   Mostly Cloudy
10:49 PM 30.2 °F 24.3 °F 22.3 °F 72% 29.79 in 10.0 mi WSW 5.8 mph - N/A   Overcast
11:08 PM 30.7 °F 24.1 °F 22.6 °F 72% 29.79 in 10.0 mi West 6.9 mph - N/A   Overcast
11:29 PM 30.9 °F 23.5 °F 22.8 °F 72% 29.80 in 10.0 mi West 8.1 mph - N/A   Mostly Cloudy
11:49 PM 31.8 °F 24.6 °F 23.9 °F 73% 29.79 in 10.0 mi West 8.1 mph - N/A   Mostly Cloudy